This is the latest recevied weather packets stored in our database for station/object W1GK. If no packets are shown the sender has not sent any weather packets the latest 10 day(s).
| Time | Temp. | Humidity | Pressure | Rain* | Wind** | Luminosity | Snow |
|---|---|---|---|---|---|---|---|
| 1787857197 | 43.33° C | 12% | 1014.6 hPa | 0 mm | - | 371 W/m² | - |
| 1787856596 | 43.33° C | 12% | 1014.7 hPa | 0 mm | - | 879 W/m² | - |
| 1787855996 | 42.78° C | 12% | 1014.8 hPa | 0 mm | - | 828 W/m² | - |
| 1787855397 | 41.67° C | 13% | 1015 hPa | 0 mm | - | 810 W/m² | - |
| 1787854796 | 41.67° C | 13% | 1015.2 hPa | 0 mm | - | 786 W/m² | - |
| 1787854196 | 40.56° C | 13% | 1015.2 hPa | 0 mm | - | 773 W/m² | - |
| 1787853598 | 40.56° C | 13% | 1015.3 hPa | 0 mm | - | 751 W/m² | - |
| 1787852995 | 40° C | 14% | 1015.3 hPa | 0 mm | - | 738 W/m² | - |
| 1787852397 | 40° C | 14% | 1015.4 hPa | 0 mm | - | 719 W/m² | - |
| 1787851797 | 41.11° C | 12% | 1015.4 hPa | 0 mm | - | 707 W/m² | - |
| 1787851197 | 40.56° C | 12% | 1015.4 hPa | 0 mm | - | 617 W/m² | - |
| 1787850596 | 40.56° C | 13% | 1015.4 hPa | 0 mm | - | 677 W/m² | - |
| 1787849998 | 40.56° C | 13% | 1015.3 hPa | 0 mm | - | 649 W/m² | - |
| 1787849395 | 40° C | 14% | 1015.2 hPa | 0 mm | - | 628 W/m² | - |
| 1787848795 | 39.44° C | 15% | 1015.3 hPa | 0 mm | - | 594 W/m² | - |
| 1787848196 | 38.89° C | 15% | 1015.4 hPa | 0 mm | - | 570 W/m² | - |
| 1787847596 | 38.33° C | 15% | 1015.4 hPa | 0 mm | - | 541 W/m² | - |
| 1787846996 | 37.78° C | 15% | 1015.4 hPa | 0 mm | - | 517 W/m² | - |
| 1787846396 | 37.22° C | 16% | 1015.4 hPa | 0 mm | - | 492 W/m² | - |
| 1787845796 | 36.67° C | 16% | 1015.5 hPa | 0 mm | - | 410 W/m² | - |
| 1787845195 | 36.67° C | 16% | 1015.5 hPa | 0 mm | - | 279 W/m² | - |
| 1787844595 | 36.67° C | 17% | 1015.4 hPa | 0 mm | - | 243 W/m² | - |
| 1787843996 | 36.11° C | 17% | 1015.4 hPa | 0 mm | - | 424 W/m² | - |
| 1787843397 | 35.56° C | 18% | 1015.3 hPa | 0 mm | - | 376 W/m² | - |
| 1787842796 | 35° C | 19% | 1015.3 hPa | 0 mm | - | 313 W/m² | - |
* Rain latest hour (hover to see other rain measurements)
** Current wind speed in m/s (hover to see current wind gust speed)